London-Corbin, KY

6:37 PM EDT on August 24, 2019 (GMT -0400)
London-Corbin / McKee

Weather History for KLOZ - June, 2019

Change the Weather History Date:

Tuesday, June 11, 2019

  Actual Average Record
Temperature  
Mean Temperature 62 °F 72 °F  
Max Temperature 72 °F 83 °F 91 °F (1956)
Min Temperature 51 °F 61 °F 41 °F (1988)
Degree Days  
Heating Degree Days 3 0  
Month to date heating degree days 3 7  
Since 1 June heating degree days 3 7  
Since 1 July heating degree days 4027 4203  
Cooling Degree Days 0 7  
Month to date cooling degree days 66 67  
Year to date cooling degree days 244 181  
Since 1 June cooling degree days 66 67  
Growing Degree Days 12 (Base 50)    
Moisture  
Dew Point 51 °F    
Average Humidity 70    
Maximum Humidity 93    
Minimum Humidity 47    
Precipitation  
Precipitation 0.00 in 0.14 in 1.70 in (2009)
Month to date precipitation 3.26 1.69  
Sea Level Pressure  
Sea Level Pressure 30.16 in    
Wind  
Wind Speed 6 mph (NE)    
Max Wind Speed 15 mph    
Max Gust Speed 21 mph    
Visibility 10 miles    
Events      
T = Trace of Precipitation, MM = Missing Value Source: NWS Daily Summary

Daily Weather History Graph

Daily Weather History Graph

Search for Another Location

Airport or City:

Astronomy

Jun. 11, 2019 Rise Set
Actual Time 6:15 AM EDT 8:56 PM EDT
Civil Twilight 5:45 AM EDT 9:26 PM EDT
Nautical Twilight 5:06 AM EDT 10:05 PM EDT
Astronomical Twilight 4:23 AM EDT 10:48 PM EDT
Moon 3:03 PM EDT (6/11) 2:49 AM EDT (6/11)
Length of Visible Light 15h 41m
Length of Day
14h 40m
Waxing Gibbous, 66% of the Moon is Illuminated
Jun 11
Waxing Gibbous
Jun 17
Full
Jun 25
Last Quarter
Jul 2
New
Jul 9
First Quarter

Hourly Weather History & Observations

Time (EDT) Temp. Dew Point Humidity Pressure Visibility Wind Dir Wind Speed Gust Speed Precip Events Conditions
12:53 AM 59.0 °F 55.9 °F 90% 30.15 in 10.0 mi Calm Calm - N/A   Clear
1:53 AM 57.0 °F 54.0 °F 89% 30.16 in 10.0 mi North 3.5 mph - N/A   Clear
2:53 AM 55.9 °F 53.1 °F 90% 30.16 in 10.0 mi NNE 3.5 mph - N/A   Clear
3:53 AM 55.0 °F 52.0 °F 89% 30.16 in 10.0 mi NNE 3.5 mph - N/A   Clear
4:53 AM 54.0 °F 51.1 °F 90% 30.16 in 10.0 mi North 4.6 mph - N/A   Clear
5:53 AM 53.1 °F 50.0 °F 89% 30.16 in 10.0 mi North 3.5 mph - N/A   Clear
6:53 AM 53.1 °F 50.0 °F 89% 30.18 in 10.0 mi Calm Calm - N/A   Clear
7:53 AM 57.0 °F 51.1 °F 81% 30.20 in 10.0 mi NNE 5.8 mph - N/A   Clear
8:53 AM 60.1 °F 50.0 °F 69% 30.22 in 10.0 mi NE 9.2 mph - N/A   Clear
9:53 AM 63.0 °F 50.0 °F 63% 30.22 in 10.0 mi East 9.2 mph - N/A   Partly Cloudy
10:53 AM 66.0 °F 51.1 °F 59% 30.22 in 10.0 mi NNE 10.4 mph - N/A   Clear
11:53 AM 66.9 °F 50.0 °F 54% 30.22 in 10.0 mi NNE 6.9 mph - N/A   Clear
12:53 PM 68.0 °F 50.0 °F 52% 30.21 in 10.0 mi Variable 6.9 mph - N/A   Clear
1:53 PM 70.0 °F 50.0 °F 49% 30.17 in 10.0 mi NE 8.1 mph 19.6 mph N/A   Clear
2:53 PM 70.0 °F 50.0 °F 49% 30.16 in 10.0 mi ENE 9.2 mph - N/A   Clear
3:53 PM 70.0 °F 51.1 °F 51% 30.14 in 10.0 mi NE 5.8 mph 18.4 mph N/A   Clear
4:53 PM 72.0 °F 50.0 °F 46% 30.12 in 10.0 mi NE 12.7 mph - N/A   Clear
5:53 PM 71.1 °F 50.0 °F 47% 30.11 in 10.0 mi NE 8.1 mph - N/A   Clear
6:53 PM 69.1 °F 50.0 °F 51% 30.11 in 10.0 mi NE 8.1 mph - N/A   Clear
7:53 PM 66.9 °F 50.0 °F 54% 30.10 in 10.0 mi NE 6.9 mph - N/A   Clear
8:53 PM 64.0 °F 48.9 °F 58% 30.11 in 10.0 mi NE 6.9 mph - N/A   Clear
9:53 PM 64.0 °F 48.9 °F 58% 30.10 in 10.0 mi ENE 4.6 mph - N/A   Clear
10:53 PM 62.1 °F 48.9 °F 62% 30.10 in 10.0 mi NE 5.8 mph - N/A   Clear
11:53 PM 61.0 °F 48.9 °F 64% 30.09 in 10.0 mi ENE 3.5 mph - N/A   Clear